This is the latest recevied weather packets stored in our database for station/object IZ1UKX-13. If no packets are shown the sender has not sent any weather packets the latest 10 day(s).
| Time | Temp. | Humidity | Pressure | Rain* | Wind** | Luminosity | Snow |
|---|---|---|---|---|---|---|---|
| 1778166089 | 17.22° C | 78% | 1023.6 hPa | 0 mm | - | 0 W/m² | - |
| 1778165790 | 16.11° C | 80% | 1023.6 hPa | 0 mm | - | 0 W/m² | - |
| 1778165488 | 15.56° C | 80% | 1023.6 hPa | 0 mm | - | 0 W/m² | - |
| 1778165144 | 15.56° C | 79% | 1023.6 hPa | 0 mm | - | 0 W/m² | - |
| 1778164843 | 16.11° C | 77% | 1023.6 hPa | 0 mm | - | 0 W/m² | - |
| 1778164544 | 16.67° C | 75% | 1023.6 hPa | 0 mm | - | 0 W/m² | - |
| 1778164244 | 17.78° C | 72% | 1023.6 hPa | 0 mm | - | 0 W/m² | - |
| 1778163944 | 17.78° C | 73% | 1023.2 hPa | 0 mm | - | 0 W/m² | - |
| 1778163644 | 17.22° C | 77% | 1023.6 hPa | 0 mm | - | 0 W/m² | - |
| 1778163344 | 16.67° C | 75% | 1023.6 hPa | 0 mm | - | 0 W/m² | - |
| 1778163043 | 17.22° C | 73% | 1023.6 hPa | 0 mm | - | 0 W/m² | - |
| 1778162744 | 18.33° C | 70% | 1023.2 hPa | 0 mm | - | 0 W/m² | - |
| 1778162443 | 18.89° C | 70% | 1023.2 hPa | 0 mm | - | 0 W/m² | - |
| 1778162144 | 19.44° C | 68% | 1023.2 hPa | 0 mm | - | 0 W/m² | - |
| 1778161849 | 19.44° C | 69% | 1023.2 hPa | 0 mm | - | 0 W/m² | - |
| 1778161544 | 20° C | 67% | 1023.2 hPa | 0 mm | - | 0 W/m² | - |
| 1778161244 | 20° C | 69% | 1022.7 hPa | 0 mm | - | 0 W/m² | - |
| 1778160944 | 18.89° C | 71% | 1023.2 hPa | 0 mm | - | 0 W/m² | - |
| 1778160643 | 18.89° C | 73% | 1023.2 hPa | 0 mm | - | 0 W/m² | - |
| 1778160344 | 18.33° C | 76% | 1023.2 hPa | 0 mm | - | 0 W/m² | - |
| 1778160044 | 17.22° C | 79% | 1023.6 hPa | 0 mm | - | 0 W/m² | - |
| 1778159745 | 16.67° C | 82% | 1023.6 hPa | 0 mm | - | 0 W/m² | - |
| 1778159443 | 16.67° C | 80% | 1023.6 hPa | 0 mm | - | 0 W/m² | - |
| 1778159143 | 16.67° C | 80% | 1023.6 hPa | 0 mm | - | 0 W/m² | - |
| 1778158844 | 16.67° C | 81% | 1023.6 hPa | 0 mm | - | 0 W/m² | - |
* Rain latest hour (hover to see other rain measurements)
** Current wind speed in m/s (hover to see current wind gust speed)